| time (UTC) | temp F | wind direction | speed MPH | gust MPH | rain 1hr in | rain 24hr in | rain mn in | humidity % | barometer mb |
| 20260506084558 | 59 | 210 | 1.0 | 3.0 | 0.00 | 0.06 | 0.02 | 81 | 1011.2 |
| 20260506083052 | 58 | 246 | 0.0 | 2.0 | 0.00 | 0.06 | 0.02 | 81 | 1011.3 |
| 20260506081551 | 58 | 214 | 0.0 | 3.0 | 0.00 | 0.06 | 0.02 | 81 | 1011.3 |
| 20260506073046 | 57 | 175 | 1.0 | 3.0 | 0.01 | 0.06 | 0.02 | 82 | 1011.6 |
| 20260506071554 | 57 | 186 | 2.0 | 5.0 | 0.01 | 0.06 | 0.02 | 82 | 1011.6 |
| 20260506061543 | 57 | 163 | 2.0 | 4.0 | 0.00 | 0.05 | 0.01 | 81 | 1011.9 |
| 20260506044545 | 56 | 173 | 0.0 | 2.0 | 0.00 | 0.05 | 0.01 | 82 | 1011.6 |
| 20260506043038 | 55 | 173 | 1.0 | 3.0 | 0.00 | 0.05 | 0.01 | 82 | 1011.5 |
| 20260506041537 | 55 | 173 | 0.0 | 2.0 | 0.00 | 0.05 | 0.01 | 82 | 1011.7 |
| 20260506040036 | 55 | 165 | 0.0 | 2.0 | 0.00 | 0.05 | 0.01 | 82 | 1011.8 |
| 20260506034538 | 56 | 182 | 0.0 | 0.0 | 0.00 | 0.05 | 0.01 | 82 | 1011.8 |
| 20260506033036 | 56 | 182 | 0.0 | 0.0 | 0.00 | 0.05 | 0.01 | 82 | 1012.1 |
| 20260506031536 | 56 | 181 | 1.0 | 3.0 | 0.00 | 0.05 | 0.01 | 82 | 1012.2 |
| 20260506030054 | 56 | 146 | 1.0 | 3.0 | 0.00 | 0.05 | 0.01 | 82 | 1012.3 |
| 20260506024534 | 56 | 136 | 1.0 | 3.0 | 0.00 | 0.05 | 0.01 | 82 | 1012.3 |
| 20260506023032 | 56 | 147 | 2.0 | 3.0 | 0.00 | 0.05 | 0.01 | 82 | 1012.3 |
| 20260506021531 | 56 | 148 | 0.0 | 0.0 | 0.00 | 0.05 | 0.01 | 82 | 1012.2 |
| 20260506020028 | 56 | 148 | 0.0 | 0.0 | 0.01 | 0.05 | 0.01 | 82 | 1012.1 |
| 20260506014525 | 56 | 148 | 0.0 | 0.0 | 0.01 | 0.05 | 0.01 | 82 | 1012.4 |
| 20260506013024 | 56 | 148 | 0.0 | 2.0 | 0.01 | 0.05 | 0.01 | 82 | 1012.7 |
| 20260506011531 | 56 | 148 | 1.0 | 3.0 | 0.01 | 0.05 | 0.01 | 82 | 1012.7 |
| 20260506010022 | 56 | 147 | 0.0 | 0.0 | 0.00 | 0.04 | 0.00 | 82 | 1012.8 |
| 20260506004540 | 56 | 147 | 1.0 | 4.0 | 0.00 | 0.04 | 0.00 | 82 | 1012.8 |
| 20260506003026 | 57 | 165 | 0.0 | 0.0 | 0.00 | 0.04 | 0.00 | 82 | 1012.7 |
| 20260506001522 | 56 | 165 | 0.0 | 3.0 | 0.00 | 0.04 | 0.00 | 82 | 1012.8 |
| 20260506000022 | 56 | 207 | 0.0 | 2.0 | 0.00 | 0.04 | 0.00 | 82 | 1012.8 |
| 20260505234516 | 57 | 207 | 1.0 | 3.0 | 0.00 | 0.04 | 0.00 | 82 | 1013.1 |
| 20260505233015 | 57 | 207 | 2.0 | 4.0 | 0.00 | 0.04 | 0.00 | 81 | 1013.0 |
| 20260505231521 | 57 | 171 | 3.0 | 5.0 | 0.00 | 0.04 | 0.00 | 81 | 1013.1 |
| 20260505230014 | 57 | 142 | 2.0 | 6.0 | 0.00 | 0.04 | 0.00 | 81 | 1013.1 |
| 20260505224511 | 57 | 160 | 2.0 | 5.0 | 0.00 | 0.04 | 0.00 | 81 | 1013.3 |
| 20260505223010 | 57 | 166 | 3.0 | 7.0 | 0.00 | 0.04 | 0.00 | 81 | 1013.3 |
| 20260505221509 | 57 | 148 | 4.0 | 7.0 | 0.00 | 0.04 | 0.00 | 82 | 1013.4 |
| 20260505220008 | 57 | 134 | 2.0 | 5.0 | 0.00 | 0.04 | 0.00 | 81 | 1013.3 |
| 20260505214505 | 57 | 186 | 0.0 | 5.0 | 0.00 | 0.04 | 0.04 | 81 | 1013.4 |
| 20260505213007 | 57 | 155 | 0.0 | 0.0 | 0.00 | 0.04 | 0.04 | 81 | 1013.5 |
| 20260505211505 | 57 | 158 | 1.0 | 5.0 | 0.00 | 0.04 | 0.04 | 81 | 1013.6 |
| 20260505210004 | 57 | 165 | 3.0 | 6.0 | 0.00 | 0.04 | 0.04 | 81 | 1013.7 |
| 20260505204504 | 57 | 204 | 0.0 | 0.0 | 0.00 | 0.04 | 0.04 | 82 | 1013.5 |
| 20260505203016 | 57 | 204 | 0.0 | 1.0 | 0.00 | 0.04 | 0.04 | 82 | 1013.5 |
| 20260505201503 | 57 | 200 | 0.0 | 1.0 | 0.00 | 0.04 | 0.04 | 82 | 1013.6 |
| 20260505200003 | 57 | 203 | 0.0 | 3.0 | 0.01 | 0.04 | 0.04 | 82 | 1013.6 |
| 20260505194502 | 57 | 182 | 2.0 | 5.0 | 0.01 | 0.04 | 0.04 | 82 | 1013.4 |
| 20260505193130 | 58 | 195 | 2.0 | 9.0 | 0.01 | 0.04 | 0.04 | 81 | 1013.4 |
| 20260505191607 | 58 | 138 | 2.0 | 9.0 | 0.01 | 0.04 | 0.04 | 81 | 1013.3 |
| 20260505190100 | 58 | 150 | 3.0 | 10.0 | 0.00 | 0.03 | 0.03 | 81 | 1013.2 |
| 20260505184603 | 58 | 144 | 4.0 | 7.0 | 0.00 | 0.03 | 0.03 | 81 | 1013.1 |
| 20260505183059 | 58 | 150 | 4.0 | 7.0 | 0.00 | 0.03 | 0.03 | 81 | 1012.9 |
| 20260505181558 | 58 | 167 | 4.0 | 7.0 | 0.00 | 0.03 | 0.03 | 81 | 1012.8 |
| 20260505180058 | 58 | 159 | 2.0 | 7.0 | 0.00 | 0.03 | 0.03 | 80 | 1012.9 |
| 20260505174558 | 59 | 134 | 7.0 | 11.0 | 0.00 | 0.03 | 0.03 | 79 | 1012.8 |
| 20260505173059 | 59 | 135 | 5.0 | 13.0 | 0.00 | 0.03 | 0.03 | 78 | 1012.8 |
| 20260505171555 | 60 | 162 | 4.0 | 7.0 | 0.00 | 0.03 | 0.03 | 76 | 1012.8 |
| 20260505170054 | 60 | 188 | 0.0 | 5.0 | 0.00 | 0.03 | 0.03 | 76 | 1012.7 |
| 20260505164553 | 60 | 118 | 4.0 | 7.0 | 0.00 | 0.03 | 0.03 | 75 | 1012.7 |
| 20260505163054 | 60 | 200 | 1.0 | 4.0 | 0.00 | 0.03 | 0.03 | 77 | 1012.8 |
| 20260505161654 | 60 | 198 | 2.0 | 5.0 | 0.00 | 0.03 | 0.03 | 76 | 1012.8 |
| 20260505153101 | 60 | 157 | 3.0 | 8.0 | 0.00 | 0.03 | 0.03 | 76 | 1012.9 |
| 20260505151548 | 60 | 119 | 4.0 | 9.0 | 0.00 | 0.03 | 0.03 | 76 | 1013.0 |
| 20260505124537 | 61 | 156 | 4.0 | 10.0 | 0.01 | 0.03 | 0.03 | 77 | 1013.9 |
| 20260505123048 | 61 | 170 | 4.0 | 8.0 | 0.01 | 0.03 | 0.03 | 77 | 1014.0 |
| 20260505121537 | 60 | 184 | 2.0 | 7.0 | 0.00 | 0.02 | 0.02 | 78 | 1014.0 |
| 20260505120043 | 60 | 282 | 1.0 | 4.0 | 0.00 | 0.02 | 0.02 | 79 | 1014.0 |
| 20260505114534 | 59 | 164 | 3.0 | 7.0 | 0.01 | 0.02 | 0.02 | 80 | 1014.2 |
| 20260505113033 | 59 | 232 | 1.0 | 4.0 | 0.01 | 0.02 | 0.02 | 81 | 1014.4 |
| 20260505111535 | 58 | 161 | 4.0 | 6.0 | 0.01 | 0.02 | 0.02 | 80 | 1014.4 |
| 20260505101533 | 59 | 162 | 3.0 | 5.0 | 0.01 | 0.02 | 0.02 | 77 | 1014.4 |
| 20260505100032 | 59 | 234 | 1.0 | 5.0 | 0.01 | 0.01 | 0.01 | 77 | 1014.3 |
| 20260505094528 | 59 | 139 | 3.0 | 4.0 | 0.01 | 0.01 | 0.01 | 75 | 1014.2 |
| 20260505093027 | 58 | 196 | 3.0 | 5.0 | 0.01 | 0.01 | 0.01 | 75 | 1014.3 |
| 20260505091530 | 58 | 144 | 3.0 | 8.0 | 0.01 | 0.01 | 0.01 | 75 | 1014.4 |
| 20260505090026 | 59 | 223 | 5.0 | 11.0 | 0.00 | 0.00 | 0.00 | 73 | 1014.4 |